Weather History for Lynchburg, VA

Change the Weather History Date:

Friday, September 13, 2013

  Actual Average Record
Temperature  
Mean Temperature 71 °F 68 °F  
Max Temperature 82 °F 79 °F 96 °F (1936)
Min Temperature 59 °F 57 °F 42 °F (1917)
Degree Days  
Heating Degree Days 0 1  
Month to date heating degree days 0 6  
Since 1 July heating degree days 5 9  
Cooling Degree Days 6 4  
Month to date cooling degree days 118 74  
Year to date cooling degree days 1147 972  
Growing Degree Days 22 (Base 50)    
Moisture  
Dew Point 54 °F    
Average Humidity 57    
Maximum Humidity 81    
Minimum Humidity 33    
Precipitation  
Precipitation 0.00 in 0.13 in 1.74 in (1944)
Month to date precipitation 0.02 1.70  
Year to date precipitation 33.74 29.63  
Snow  
Snow 0.00 in - - ()
Month to date snowfall 0.0  
Since 1 July snowfall 0.0  
Since 1 September snowfall 0.0  
Snow Depth 0.00 in    
Sea Level Pressure  
Sea Level Pressure 29.83 in    
Wind  
Wind Speed 4 mph (NW)    
Max Wind Speed 12 mph    
Max Gust Speed -    
Visibility 10 miles    
Events      
T = Trace of Precipitation, MM = Missing Value Source: NWS Daily Summary

Daily Weather History Graph

Daily Weather History Graph

Search for Another Location

Airport:

Trip Planner

Search our weather history database for the weather conditions in past years. The results will help you decide how hot, cold, wet, or windy it might be!

Date:

Astronomy

Sep. 13, 2013 Rise Set
Actual Time 6:57 AM EDT 7:27 PM EDT
Civil Twilight 6:31 AM EDT 7:53 PM EDT
Nautical Twilight 6:00 AM EDT 8:24 PM EDT
Astronomical Twilight 5:28 AM EDT 8:55 PM EDT
Moon 3:10 PM EDT (9/13) 12:30 AM EDT (9/13)
Length of Visible Light 13h 22m
Length of Day
12h 29m
First Quarter, 61% of the Moon is Illuminated
Sep 13
First Quarter
Sep 19
Full
Sep 26
Last Quarter
Oct 4
New
Oct 11
First Quarter

Hourly Weather History & Observations

Time (EDT) Temp. Dew Point Humidity Pressure Visibility Wind Dir Wind Speed Gust Speed Precip Events Conditions
12:54 AM 73.0 °F 63.0 °F 71% 29.81 in 10.0 mi Calm Calm - N/A   Overcast
1:54 AM 72.0 °F 63.0 °F 73% 29.79 in 10.0 mi West 3.5 mph - N/A   Mostly Cloudy
2:54 AM 70.0 °F 63.0 °F 78% 29.78 in 10.0 mi Calm Calm - N/A   Partly Cloudy
3:54 AM 70.0 °F 62.1 °F 76% 29.77 in 10.0 mi West 3.5 mph - N/A   Clear
4:54 AM 68.0 °F 61.0 °F 78% 29.77 in 10.0 mi West 3.5 mph - N/A   Clear
5:54 AM 66.9 °F 61.0 °F 81% 29.77 in 10.0 mi Calm Calm - N/A   Clear
6:54 AM 66.9 °F 61.0 °F 81% 29.79 in 10.0 mi Calm Calm - N/A   Clear
7:54 AM 69.1 °F 61.0 °F 75% 29.80 in 10.0 mi Calm Calm - N/A   Clear
8:54 AM 73.9 °F 62.1 °F 66% 29.80 in 10.0 mi Variable 3.5 mph - N/A   Clear
9:54 AM 75.9 °F 57.9 °F 54% 29.81 in 10.0 mi Variable 6.9 mph - N/A   Clear
10:54 AM 79.0 °F 55.9 °F 45% 29.82 in 10.0 mi NNW 4.6 mph - N/A   Scattered Clouds
11:54 AM 80.1 °F 52.0 °F 38% 29.82 in 10.0 mi Variable 5.8 mph - N/A   Clear
12:54 PM 78.1 °F 48.9 °F 36% 29.82 in 10.0 mi WNW 6.9 mph - N/A   Scattered Clouds
1:54 PM 77.0 °F 51.1 °F 40% 29.81 in 10.0 mi NNW 3.5 mph - N/A   Mostly Cloudy
2:54 PM 81.0 °F 48.0 °F 31% 29.81 in 10.0 mi Variable 6.9 mph - N/A   Clear
3:54 PM 80.1 °F 48.0 °F 32% 29.80 in 10.0 mi WNW 5.8 mph - N/A   Partly Cloudy
4:54 PM 75.9 °F 48.0 °F 37% 29.81 in 10.0 mi Variable 3.5 mph - N/A   Partly Cloudy
5:54 PM 79.0 °F 48.0 °F 34% 29.82 in 10.0 mi Variable 3.5 mph - N/A   Scattered Clouds
6:54 PM 72.0 °F 48.0 °F 43% 29.84 in 10.0 mi NW 4.6 mph - N/A   Clear
7:54 PM 68.0 °F 48.0 °F 49% 29.87 in 10.0 mi NW 3.5 mph - N/A   Clear
8:54 PM 64.9 °F 48.0 °F 54% 29.89 in 10.0 mi NW 4.6 mph - N/A   Clear
9:54 PM 64.0 °F 46.9 °F 54% 29.91 in 10.0 mi NNW 3.5 mph - N/A   Clear
10:54 PM 62.1 °F 48.0 °F 60% 29.94 in 10.0 mi North 3.5 mph - N/A   Clear
11:54 PM 62.1 °F 48.0 °F 60% 29.95 in 10.0 mi NNW 3.5 mph - N/A   Mostly Cloudy